Time,TemperatureF,DewpointF,PressureIn,WindDirection,WindDirectionDegrees,WindSpeedMPH,WindSpeedGustMPH,Humidity,HourlyPrecipIn,Conditions,Clouds,dailyrainin,SoftwareType,DateUTC
2013-04-12 00:00:00,59.0,58.4,29.87,WNW,287,0.0,0.0,98,0.49,,,2.12,Wunderground v.1.13,2013-04-12 04:00:00,
2013-04-12 00:02:00,59.0,58.4,29.87,SSE,165,0.0,0.0,98,0.61,,,2.13,Wunderground v.1.13,2013-04-12 04:02:00,
2013-04-12 00:04:00,59.0,58.4,29.86,South,173,0.0,0.0,98,0.30,,,2.14,Wunderground v.1.13,2013-04-12 04:04:00,
2013-04-12 00:07:00,59.0,58.4,29.88,South,173,0.0,0.0,98,0.82,,,2.17,Wunderground v.1.13,2013-04-12 04:07:00,
2013-04-12 00:13:00,59.0,58.4,29.87,South,173,0.0,0.0,98,0.33,,,0.01,Wunderground v.1.13,2013-04-12 04:13:00,
2013-04-12 00:18:00,59.0,58.4,29.86,South,173,0.0,0.0,98,0.31,,,0.04,Wunderground v.1.13,2013-04-12 04:18:00,
2013-04-12 00:24:00,59.0,58.4,29.86,South,173,0.0,0.0,98,0.20,,,0.06,Wunderground v.1.13,2013-04-12 04:24:00,
2013-04-12 00:29:00,59.0,58.4,29.86,South,173,0.0,0.0,98,0.21,,,0.08,Wunderground v.1.13,2013-04-12 04:29:00,
2013-04-12 00:35:00,58.9,58.3,29.84,South,173,0.0,0.0,98,0.20,,,0.10,Wunderground v.1.13,2013-04-12 04:35:00,
2013-04-12 00:40:00,58.9,58.3,29.84,East,97,0.0,0.0,98,0.24,,,0.12,Wunderground v.1.13,2013-04-12 04:40:00,
2013-04-12 00:45:00,58.9,58.3,29.81,SE,144,0.0,0.0,98,0.34,,,0.14,Wunderground v.1.13,2013-04-12 04:45:00,
2013-04-12 00:50:00,58.8,58.2,29.74,East,86,0.0,1.0,98,0.25,,,0.16,Wunderground v.1.13,2013-04-12 04:50:00,
2013-04-12 00:56:00,58.6,58.0,29.75,SSW,192,0.0,3.0,98,0.11,,,0.17,Wunderground v.1.13,2013-04-12 04:56:00,
2013-04-12 01:01:00,58.6,58.0,29.78,SSW,194,1.0,1.0,98,0.11,,,0.18,Wunderground v.1.13,2013-04-12 05:01:00,
2013-04-12 01:06:00,58.5,57.9,29.78,SSW,199,0.0,1.0,98,0.06,,,0.18,Wunderground v.1.13,2013-04-12 05:06:00,
2013-04-12 01:11:00,58.5,57.9,29.77,SSE,157,0.0,0.0,98,0.04,,,0.18,Wunderground v.1.13,2013-04-12 05:11:00,
2013-04-12 01:17:00,58.5,57.9,29.76,North,10,0.0,1.0,98,0.00,,,0.18,Wunderground v.1.13,2013-04-12 05:17:00,
2013-04-12 01:23:00,58.4,57.8,29.77,South,188,0.0,2.0,98,0.00,,,0.18,Wunderground v.1.13,2013-04-12 05:23:00,
2013-04-12 01:29:00,58.4,57.8,29.78,WSW,245,0.0,1.0,98,0.00,,,0.18,Wunderground v.1.13,2013-04-12 05:29:00,
2013-04-12 01:34:00,58.5,57.9,29.79,SE,146,0.0,3.0,98,0.00,,,0.18,Wunderground v.1.13,2013-04-12 05:34:00,
2013-04-12 01:40:00,58.9,58.3,29.80,SSE,163,0.0,2.0,98,0.00,,,0.18,Wunderground v.1.13,2013-04-12 05:40:00,
2013-04-12 01:46:00,59.1,58.5,29.80,SE,138,2.0,2.0,98,0.00,,,0.18,Wunderground v.1.13,2013-04-12 05:46:00,
2013-04-12 01:52:00,59.2,58.3,29.79,SSE,155,2.0,2.0,97,0.00,,,0.18,Wunderground v.1.13,2013-04-12 05:52:00,
2013-04-12 01:58:00,59.2,58.3,29.79,SSE,157,2.0,6.0,97,0.00,,,0.18,Wunderground v.1.13,2013-04-12 05:58:00,
2013-04-12 02:03:00,59.3,58.4,29.78,SSE,164,0.0,3.0,97,0.00,,,0.18,Wunderground v.1.13,2013-04-12 06:03:00,
2013-04-12 02:08:00,59.2,58.3,29.77,South,188,0.0,2.0,97,0.00,,,0.19,Wunderground v.1.13,2013-04-12 06:08:00,
2013-04-12 02:13:00,59.0,58.2,29.78,SSE,163,0.0,6.0,97,0.00,,,0.19,Wunderground v.1.13,2013-04-12 06:13:00,
2013-04-12 02:18:00,59.0,58.2,29.77,SE,137,0.0,4.0,97,0.00,,,0.19,Wunderground v.1.13,2013-04-12 06:18:00,
2013-04-12 02:23:00,58.9,58.1,29.77,SSW,195,0.0,3.0,97,0.32,,,0.21,Wunderground v.1.13,2013-04-12 06:23:00,
2013-04-12 02:28:00,58.9,58.1,29.77,ESE,117,0.0,8.0,97,0.13,,,0.22,Wunderground v.1.13,2013-04-12 06:28:00,
2013-04-12 02:33:00,58.8,58.0,29.77,NE,52,0.0,2.0,97,0.26,,,0.26,Wunderground v.1.13,2013-04-12 06:33:00,
2013-04-12 02:38:00,58.7,57.9,29.76,NE,52,1.0,1.0,97,0.23,,,0.30,Wunderground v.1.13,2013-04-12 06:38:00,
2013-04-12 02:43:00,58.7,57.9,29.76,SSE,163,1.0,2.0,97,0.16,,,0.31,Wunderground v.1.13,2013-04-12 06:43:00,
2013-04-12 02:48:00,58.7,58.1,29.76,SSE,162,0.0,0.0,98,0.12,,,0.32,Wunderground v.1.13,2013-04-12 06:48:00,
2013-04-12 02:53:00,58.7,58.1,29.76,SSE,157,0.0,4.0,98,0.09,,,0.33,Wunderground v.1.13,2013-04-12 06:53:00,
2013-04-12 02:58:00,58.7,58.1,29.76,SSE,158,0.0,1.0,98,0.07,,,0.33,Wunderground v.1.13,2013-04-12 06:58:00,
2013-04-12 03:03:00,58.8,58.2,29.77,South,179,0.0,5.0,98,0.05,,,0.33,Wunderground v.1.13,2013-04-12 07:03:00,
2013-04-12 03:08:00,58.9,58.3,29.77,SSE,159,0.0,0.0,98,0.00,,,0.33,Wunderground v.1.13,2013-04-12 07:08:00,
2013-04-12 03:13:00,58.9,58.3,29.76,SSE,159,0.0,1.0,98,0.00,,,0.33,Wunderground v.1.13,2013-04-12 07:13:00,
2013-04-12 03:18:00,58.9,58.3,29.75,SSE,159,0.0,0.0,98,0.00,,,0.33,Wunderground v.1.13,2013-04-12 07:18:00,
2013-04-12 03:23:00,59.0,58.4,29.76,SSE,159,0.0,0.0,98,0.13,,,0.35,Wunderground v.1.13,2013-04-12 07:23:00,
2013-04-12 03:28:00,59.0,58.4,29.76,SSE,159,0.0,0.0,98,0.11,,,0.35,Wunderground v.1.13,2013-04-12 07:28:00,
2013-04-12 03:33:00,59.1,58.5,29.76,SSE,159,0.0,0.0,98,0.06,,,0.35,Wunderground v.1.13,2013-04-12 07:33:00,
2013-04-12 03:38:00,59.1,58.5,29.75,SSE,159,0.0,0.0,98,0.05,,,0.36,Wunderground v.1.13,2013-04-12 07:38:00,
2013-04-12 03:43:00,59.1,58.5,29.75,ESE,115,0.0,4.0,98,0.05,,,0.36,Wunderground v.1.13,2013-04-12 07:43:00,
2013-04-12 03:48:00,59.3,58.7,29.75,SSE,150,0.0,3.0,98,0.05,,,0.37,Wunderground v.1.13,2013-04-12 07:48:00,
2013-04-12 03:53:00,59.5,58.9,29.75,SSE,150,1.0,3.0,98,0.27,,,0.39,Wunderground v.1.13,2013-04-12 07:53:00,
2013-04-12 03:58:00,59.6,59.0,29.76,SE,131,0.0,4.0,98,0.20,,,0.40,Wunderground v.1.13,2013-04-12 07:58:00,
2013-04-12 04:03:00,59.6,59.0,29.76,SSE,152,0.0,5.0,98,0.34,,,0.42,Wunderground v.1.13,2013-04-12 08:03:00,
2013-04-12 04:08:00,59.6,59.0,29.76,South,170,0.0,1.0,98,0.15,,,0.43,Wunderground v.1.13,2013-04-12 08:08:00,
2013-04-12 04:13:00,59.6,59.0,29.76,South,170,0.0,1.0,98,0.09,,,0.43,Wunderground v.1.13,2013-04-12 08:13:00,
2013-04-12 04:19:00,59.7,59.1,29.76,SE,144,1.0,5.0,98,0.05,,,0.43,Wunderground v.1.13,2013-04-12 08:19:00,
2013-04-12 04:24:00,59.8,59.2,29.77,South,189,3.0,3.0,98,0.00,,,0.43,Wunderground v.1.13,2013-04-12 08:24:00,
2013-04-12 04:29:00,59.8,59.2,29.77,SSE,151,0.0,5.0,98,0.00,,,0.43,Wunderground v.1.13,2013-04-12 08:29:00,
2013-04-12 04:34:00,59.8,59.2,29.77,SSE,151,2.0,2.0,98,0.00,,,0.43,Wunderground v.1.13,2013-04-12 08:34:00,
2013-04-12 04:39:00,59.8,59.2,29.77,SSE,151,1.0,2.0,98,0.00,,,0.43,Wunderground v.1.13,2013-04-12 08:39:00,
2013-04-12 04:44:00,59.8,59.2,29.77,SSE,151,0.0,2.0,98,0.00,,,0.43,Wunderground v.1.13,2013-04-12 08:44:00,
2013-04-12 04:49:00,59.8,59.2,29.77,SSE,153,0.0,3.0,98,0.00,,,0.43,Wunderground v.1.13,2013-04-12 08:49:00,
2013-04-12 04:54:00,59.8,59.2,29.77,SSE,154,0.0,2.0,98,0.00,,,0.43,Wunderground v.1.13,2013-04-12 08:54:00,
2013-04-12 04:59:00,59.9,59.3,29.78,SSE,166,0.0,2.0,98,0.00,,,0.43,Wunderground v.1.13,2013-04-12 08:59:00,
2013-04-12 05:04:00,59.9,59.3,29.78,South,184,0.0,3.0,98,0.00,,,0.43,Wunderground v.1.13,2013-04-12 09:04:00,
2013-04-12 05:09:00,59.9,59.3,29.78,South,184,0.0,1.0,98,0.00,,,0.43,Wunderground v.1.13,2013-04-12 09:09:00,
2013-04-12 05:14:00,59.8,59.2,29.78,SSE,167,1.0,3.0,98,0.00,,,0.43,Wunderground v.1.13,2013-04-12 09:14:00,
2013-04-12 05:19:00,59.8,59.2,29.78,SSE,168,0.0,4.0,98,0.00,,,0.43,Wunderground v.1.13,2013-04-12 09:19:00,
2013-04-12 05:24:00,59.7,59.1,29.79,South,176,0.0,3.0,98,0.00,,,0.43,Wunderground v.1.13,2013-04-12 09:24:00,
2013-04-12 05:29:00,59.7,59.1,29.79,SSW,208,0.0,2.0,98,0.00,,,0.43,Wunderground v.1.13,2013-04-12 09:29:00,
2013-04-12 05:34:00,59.7,59.1,29.80,SSW,209,0.0,2.0,98,0.00,,,0.43,Wunderground v.1.13,2013-04-12 09:34:00,
2013-04-12 05:39:00,59.7,59.1,29.80,SW,221,0.0,2.0,98,0.00,,,0.43,Wunderground v.1.13,2013-04-12 09:39:00,
2013-04-12 05:44:00,59.6,59.0,29.80,SW,222,2.0,3.0,98,0.00,,,0.43,Wunderground v.1.13,2013-04-12 09:44:00,
2013-04-12 05:49:00,59.5,58.9,29.80,West,266,2.0,5.0,98,0.00,,,0.43,Wunderground v.1.13,2013-04-12 09:49:00,
2013-04-12 05:54:00,59.4,58.8,29.80,SW,217,2.0,3.0,98,0.00,,,0.43,Wunderground v.1.13,2013-04-12 09:54:00,
2013-04-12 05:59:00,59.4,58.5,29.81,SW,220,1.0,4.0,97,0.00,,,0.43,Wunderground v.1.13,2013-04-12 09:59:00,
2013-04-12 06:05:00,59.2,58.3,29.81,WSW,243,0.0,4.0,97,0.00,,,0.43,Wunderground v.1.13,2013-04-12 10:05:00,
2013-04-12 06:10:00,59.0,58.2,29.82,SSW,202,0.0,1.0,97,0.00,,,0.43,Wunderground v.1.13,2013-04-12 10:10:00,
2013-04-12 06:15:00,58.9,58.1,29.82,WSW,240,0.0,1.0,97,0.00,,,0.43,Wunderground v.1.13,2013-04-12 10:15:00,
2013-04-12 06:20:00,58.9,58.1,29.81,NNW,335,1.0,1.0,97,0.00,,,0.43,Wunderground v.1.13,2013-04-12 10:20:00,
2013-04-12 06:25:00,58.5,57.7,29.82,North,355,2.0,3.0,97,0.00,,,0.43,Wunderground v.1.13,2013-04-12 10:25:00,
2013-04-12 06:30:00,58.0,56.9,29.82,NNW,335,3.0,3.0,96,0.00,,,0.43,Wunderground v.1.13,2013-04-12 10:30:00,
2013-04-12 06:35:00,57.7,56.6,29.82,NW,319,1.0,1.0,96,0.00,,,0.43,Wunderground v.1.13,2013-04-12 10:35:00,
2013-04-12 06:40:00,57.4,56.6,29.82,North,5,1.0,2.0,97,0.00,,,0.43,Wunderground v.1.13,2013-04-12 10:40:00,
2013-04-12 06:45:00,57.2,56.4,29.83,North,10,2.0,2.0,97,0.00,,,0.43,Wunderground v.1.13,2013-04-12 10:45:00,
2013-04-12 06:50:00,57.0,56.2,29.83,NNW,345,3.0,3.0,97,0.00,,,0.43,Wunderground v.1.13,2013-04-12 10:50:00,
2013-04-12 06:55:00,56.7,55.6,29.83,NW,314,0.0,2.0,96,0.00,,,0.43,Wunderground v.1.13,2013-04-12 10:55:00,
2013-04-12 07:00:00,56.5,55.4,29.83,WNW,293,1.0,2.0,96,0.00,,,0.43,Wunderground v.1.13,2013-04-12 11:00:00,
2013-04-12 07:05:00,56.3,55.5,29.84,NNW,348,1.0,2.0,97,0.00,,,0.43,Wunderground v.1.13,2013-04-12 11:05:00,
2013-04-12 07:10:00,56.2,55.4,29.84,NW,307,2.0,4.0,97,0.00,,,0.43,Wunderground v.1.13,2013-04-12 11:10:00,
2013-04-12 07:15:00,56.2,55.4,29.84,NW,305,0.0,1.0,97,0.00,,,0.43,Wunderground v.1.13,2013-04-12 11:15:00,
2013-04-12 07:20:00,56.2,55.4,29.84,North,11,3.0,3.0,97,0.00,,,0.43,Wunderground v.1.13,2013-04-12 11:20:00,
2013-04-12 07:25:00,56.1,55.3,29.84,NW,309,1.0,3.0,97,0.00,,,0.43,Wunderground v.1.13,2013-04-12 11:25:00,
2013-04-12 07:30:00,56.1,55.3,29.85,NW,321,1.0,3.0,97,0.00,,,0.43,Wunderground v.1.13,2013-04-12 11:30:00,
2013-04-12 07:35:00,56.0,55.2,29.85,WNW,291,3.0,3.0,97,0.00,,,0.43,Wunderground v.1.13,2013-04-12 11:35:00,
2013-04-12 07:41:00,56.0,55.2,29.85,NNW,344,2.0,3.0,97,0.00,,,0.43,Wunderground v.1.13,2013-04-12 11:41:00,
2013-04-12 07:46:00,55.9,55.1,29.86,NNW,342,0.0,2.0,97,0.00,,,0.43,Wunderground v.1.13,2013-04-12 11:46:00,
2013-04-12 07:51:00,55.9,55.1,29.86,WNW,300,0.0,3.0,97,0.00,,,0.43,Wunderground v.1.13,2013-04-12 11:51:00,
2013-04-12 07:56:00,55.7,54.9,29.86,North,355,3.0,5.0,97,0.00,,,0.43,Wunderground v.1.13,2013-04-12 11:56:00,
2013-04-12 08:01:00,55.4,54.6,29.86,WNW,302,3.0,4.0,97,0.00,,,0.43,Wunderground v.1.13,2013-04-12 12:01:00,
2013-04-12 08:07:00,55.2,54.4,29.86,North,5,2.0,5.0,97,0.00,,,0.43,Wunderground v.1.13,2013-04-12 12:07:00,
2013-04-12 08:12:00,55.0,54.2,29.86,West,277,0.0,5.0,97,0.00,,,0.43,Wunderground v.1.13,2013-04-12 12:12:00,
2013-04-12 08:17:00,54.8,53.7,29.86,North,360,2.0,5.0,96,0.00,,,0.43,Wunderground v.1.13,2013-04-12 12:17:00,
2013-04-12 08:22:00,54.6,53.5,29.87,North,355,0.0,6.0,96,0.00,,,0.43,Wunderground v.1.13,2013-04-12 12:22:00,
2013-04-12 08:27:00,54.5,53.4,29.87,WNW,300,1.0,6.0,96,0.00,,,0.44,Wunderground v.1.13,2013-04-12 12:27:00,
2013-04-12 08:32:00,54.4,53.6,29.87,WNW,291,0.0,4.0,97,0.00,,,0.44,Wunderground v.1.13,2013-04-12 12:32:00,
2013-04-12 08:37:00,54.1,53.0,29.88,North,355,0.0,4.0,96,0.00,,,0.44,Wunderground v.1.13,2013-04-12 12:37:00,
2013-04-12 08:42:00,53.8,52.7,29.88,North,360,0.0,2.0,96,0.00,,,0.44,Wunderground v.1.13,2013-04-12 12:42:00,
2013-04-12 08:47:00,53.6,52.5,29.88,North,360,2.0,3.0,96,0.00,,,0.44,Wunderground v.1.13,2013-04-12 12:47:00,
2013-04-12 08:52:00,53.2,52.1,29.88,North,355,0.0,3.0,96,0.00,,,0.44,Wunderground v.1.13,2013-04-12 12:52:00,
2013-04-12 08:57:00,53.0,51.9,29.89,North,360,1.0,3.0,96,0.00,,,0.44,Wunderground v.1.13,2013-04-12 12:57:00,
2013-04-12 09:02:00,52.7,51.6,29.89,North,355,1.0,6.0,96,0.00,,,0.44,Wunderground v.1.13,2013-04-12 13:02:00,
2013-04-12 09:07:00,52.3,51.2,29.89,NNW,348,0.0,5.0,96,0.00,,,0.44,Wunderground v.1.13,2013-04-12 13:07:00,
2013-04-12 09:12:00,52.1,51.0,29.89,North,351,2.0,5.0,96,0.00,,,0.44,Wunderground v.1.13,2013-04-12 13:12:00,
2013-04-12 09:17:00,51.9,50.8,29.89,North,350,5.0,10.0,96,0.00,,,0.44,Wunderground v.1.13,2013-04-12 13:17:00,
2013-04-12 09:22:00,51.9,50.8,29.90,North,350,2.0,3.0,96,0.00,,,0.44,Wunderground v.1.13,2013-04-12 13:22:00,
2013-04-12 09:27:00,51.9,50.8,29.90,North,11,4.0,7.0,96,0.00,,,0.44,Wunderground v.1.13,2013-04-12 13:27:00,
2013-04-12 09:32:00,51.8,51.0,29.90,NNW,344,1.0,4.0,97,0.00,,,0.44,Wunderground v.1.13,2013-04-12 13:32:00,
2013-04-12 09:36:00,51.8,51.0,29.90,North,0,2.0,10.0,97,0.00,,,0.44,Wunderground v.1.13,2013-04-12 13:36:00,
2013-04-12 09:38:00,51.8,51.0,29.90,North,0,2.0,10.0,97,0.00,,,0.44,Wunderground v.1.13,2013-04-12 13:38:00,
2013-04-12 09:40:00,51.8,51.0,29.90,North,0,2.0,10.0,97,0.00,,,0.44,Wunderground v.1.13,2013-04-12 13:40:00,
2013-04-12 09:42:00,51.8,51.0,29.90,North,0,2.0,10.0,97,0.00,,,0.44,Wunderground v.1.13,2013-04-12 13:42:00,
2013-04-12 09:44:00,51.8,51.0,29.90,North,0,2.0,10.0,97,0.00,,,0.44,Wunderground v.1.13,2013-04-12 13:44:00,
2013-04-12 09:46:00,51.6,50.5,29.91,North,0,2.0,5.0,96,0.00,,,0.44,Wunderground v.1.13,2013-04-12 13:46:00,
2013-04-12 09:48:00,51.6,50.5,29.91,North,0,2.0,5.0,96,0.00,,,0.44,Wunderground v.1.13,2013-04-12 13:48:00,
2013-04-12 09:50:00,51.6,50.5,29.91,North,0,2.0,5.0,96,0.00,,,0.44,Wunderground v.1.13,2013-04-12 13:50:00,
2013-04-12 09:52:00,51.6,50.5,29.91,North,0,2.0,5.0,96,0.00,,,0.44,Wunderground v.1.13,2013-04-12 13:52:00,
2013-04-12 09:54:00,51.6,50.5,29.91,North,0,2.0,5.0,96,0.00,,,0.44,Wunderground v.1.13,2013-04-12 13:54:00,
2013-04-12 09:56:00,51.6,50.5,29.91,North,0,2.0,5.0,96,0.00,,,0.44,Wunderground v.1.13,2013-04-12 13:56:00,
2013-04-12 09:58:00,51.6,50.5,29.91,North,0,2.0,5.0,96,0.00,,,0.44,Wunderground v.1.13,2013-04-12 13:58:00,
2013-04-12 10:00:00,51.6,50.5,29.91,North,0,2.0,5.0,96,0.00,,,0.44,Wunderground v.1.13,2013-04-12 14:00:00,
2013-04-12 10:02:00,51.6,50.5,29.91,North,0,2.0,5.0,96,0.00,,,0.44,Wunderground v.1.13,2013-04-12 14:02:00,
2013-04-12 10:04:00,51.6,50.5,29.91,North,0,2.0,5.0,96,0.00,,,0.44,Wunderground v.1.13,2013-04-12 14:04:00,
2013-04-12 10:06:00,51.6,50.5,29.91,North,0,2.0,5.0,96,0.00,,,0.44,Wunderground v.1.13,2013-04-12 14:06:00,
2013-04-12 10:08:00,51.6,50.5,29.91,North,0,2.0,5.0,96,0.00,,,0.44,Wunderground v.1.13,2013-04-12 14:08:00,
2013-04-12 10:10:00,51.6,50.5,29.91,North,0,2.0,5.0,96,0.00,,,0.44,Wunderground v.1.13,2013-04-12 14:10:00,
2013-04-12 10:12:00,51.6,50.5,29.91,North,0,2.0,5.0,96,0.00,,,0.44,Wunderground v.1.13,2013-04-12 14:12:00,
2013-04-12 10:14:00,51.6,50.5,29.91,North,0,2.0,5.0,96,0.00,,,0.44,Wunderground v.1.13,2013-04-12 14:14:00,
2013-04-12 10:16:00,52.6,50.6,29.92,North,0,1.0,7.0,93,0.00,,,0.44,Wunderground v.1.13,2013-04-12 14:16:00,
2013-04-12 10:18:00,52.6,50.6,29.92,North,0,1.0,7.0,93,0.00,,,0.44,Wunderground v.1.13,2013-04-12 14:18:00,
2013-04-12 10:20:00,52.6,50.6,29.92,North,0,1.0,7.0,93,0.00,,,0.44,Wunderground v.1.13,2013-04-12 14:20:00,
2013-04-12 10:22:00,52.6,50.6,29.92,North,0,1.0,7.0,93,0.00,,,0.44,Wunderground v.1.13,2013-04-12 14:22:00,
2013-04-12 10:24:00,52.6,50.6,29.92,North,0,1.0,7.0,93,0.00,,,0.44,Wunderground v.1.13,2013-04-12 14:24:00,
2013-04-12 10:26:00,52.6,50.6,29.92,North,0,1.0,7.0,93,0.00,,,0.44,Wunderground v.1.13,2013-04-12 14:26:00,
2013-04-12 10:28:00,52.6,50.6,29.92,North,0,1.0,7.0,93,0.00,,,0.44,Wunderground v.1.13,2013-04-12 14:28:00,
2013-04-12 10:30:00,52.6,50.6,29.92,North,0,1.0,7.0,93,0.00,,,0.44,Wunderground v.1.13,2013-04-12 14:30:00,
2013-04-12 10:32:00,52.6,50.6,29.92,North,0,1.0,7.0,93,0.00,,,0.44,Wunderground v.1.13,2013-04-12 14:32:00,
2013-04-12 10:34:00,52.6,50.6,29.92,North,0,1.0,7.0,93,0.00,,,0.44,Wunderground v.1.13,2013-04-12 14:34:00,
2013-04-12 10:36:00,52.6,50.6,29.92,North,0,1.0,7.0,93,0.00,,,0.44,Wunderground v.1.13,2013-04-12 14:36:00,
2013-04-12 10:38:00,52.6,50.6,29.92,North,0,1.0,7.0,93,0.00,,,0.44,Wunderground v.1.13,2013-04-12 14:38:00,
2013-04-12 10:40:00,52.6,50.6,29.92,North,0,1.0,7.0,93,0.00,,,0.44,Wunderground v.1.13,2013-04-12 14:40:00,
2013-04-12 10:42:00,52.6,50.6,29.92,North,0,1.0,7.0,93,0.00,,,0.44,Wunderground v.1.13,2013-04-12 14:42:00,
2013-04-12 10:44:00,52.6,50.6,29.92,North,0,1.0,7.0,93,0.00,,,0.44,Wunderground v.1.13,2013-04-12 14:44:00,
2013-04-12 10:46:00,54.3,49.6,29.92,North,0,1.0,7.0,84,0.00,,,0.44,Wunderground v.1.13,2013-04-12 14:46:00,
2013-04-12 10:48:00,54.3,49.6,29.92,North,0,1.0,7.0,84,0.00,,,0.44,Wunderground v.1.13,2013-04-12 14:48:00,
2013-04-12 10:50:00,54.3,49.6,29.92,North,0,1.0,7.0,84,0.00,,,0.44,Wunderground v.1.13,2013-04-12 14:50:00,
2013-04-12 10:52:00,54.3,49.6,29.92,North,0,1.0,7.0,84,0.00,,,0.44,Wunderground v.1.13,2013-04-12 14:52:00,
2013-04-12 10:54:00,54.3,49.6,29.92,North,0,1.0,7.0,84,0.00,,,0.44,Wunderground v.1.13,2013-04-12 14:54:00,
2013-04-12 10:56:00,54.3,49.6,29.92,North,0,1.0,7.0,84,0.00,,,0.44,Wunderground v.1.13,2013-04-12 14:56:00,
2013-04-12 10:58:00,54.3,49.6,29.92,North,0,1.0,7.0,84,0.00,,,0.44,Wunderground v.1.13,2013-04-12 14:58:00,
2013-04-12 11:00:00,54.3,49.6,29.92,North,0,1.0,7.0,84,0.00,,,0.44,Wunderground v.1.13,2013-04-12 15:00:00,
2013-04-12 11:02:00,54.3,49.6,29.92,North,0,1.0,7.0,84,0.00,,,0.44,Wunderground v.1.13,2013-04-12 15:02:00,
2013-04-12 11:04:00,54.3,49.6,29.92,North,0,1.0,7.0,84,0.00,,,0.44,Wunderground v.1.13,2013-04-12 15:04:00,
2013-04-12 11:06:00,54.3,49.6,29.92,North,0,1.0,7.0,84,0.00,,,0.44,Wunderground v.1.13,2013-04-12 15:06:00,
2013-04-12 11:08:00,54.3,49.6,29.92,North,0,1.0,7.0,84,0.00,,,0.44,Wunderground v.1.13,2013-04-12 15:08:00,
2013-04-12 11:10:00,54.3,49.6,29.92,North,0,1.0,7.0,84,0.00,,,0.44,Wunderground v.1.13,2013-04-12 15:10:00,
2013-04-12 11:12:00,54.3,49.6,29.92,North,0,1.0,7.0,84,0.00,,,0.44,Wunderground v.1.13,2013-04-12 15:12:00,
2013-04-12 11:14:00,54.3,49.6,29.92,North,0,1.0,7.0,84,0.00,,,0.44,Wunderground v.1.13,2013-04-12 15:14:00,
2013-04-12 11:16:00,55.4,48.7,29.94,WNW,293,2.0,8.0,78,0.00,,,0.44,Wunderground v.1.13,2013-04-12 15:16:00,
2013-04-12 11:18:00,55.4,48.7,29.94,WNW,293,2.0,8.0,78,0.00,,,0.44,Wunderground v.1.13,2013-04-12 15:18:00,
2013-04-12 11:20:00,55.4,48.7,29.94,WNW,293,2.0,8.0,78,0.00,,,0.44,Wunderground v.1.13,2013-04-12 15:20:00,
2013-04-12 11:22:00,55.4,48.7,29.94,WNW,293,2.0,8.0,78,0.00,,,0.44,Wunderground v.1.13,2013-04-12 15:22:00,
2013-04-12 11:24:00,55.4,48.7,29.94,WNW,293,2.0,8.0,78,0.00,,,0.44,Wunderground v.1.13,2013-04-12 15:24:00,
2013-04-12 11:26:00,55.4,48.7,29.94,WNW,293,2.0,8.0,78,0.00,,,0.44,Wunderground v.1.13,2013-04-12 15:26:00,
2013-04-12 11:28:00,55.4,48.7,29.94,WNW,293,2.0,8.0,78,0.00,,,0.44,Wunderground v.1.13,2013-04-12 15:28:00,
2013-04-12 11:30:00,55.4,48.7,29.94,WNW,293,2.0,8.0,78,0.00,,,0.44,Wunderground v.1.13,2013-04-12 15:30:00,
2013-04-12 11:32:00,55.4,48.7,29.94,WNW,293,2.0,8.0,78,0.00,,,0.44,Wunderground v.1.13,2013-04-12 15:32:00,
2013-04-12 11:34:00,55.4,48.7,29.94,WNW,293,2.0,8.0,78,0.00,,,0.44,Wunderground v.1.13,2013-04-12 15:34:00,
2013-04-12 11:36:00,55.4,48.7,29.94,WNW,293,2.0,8.0,78,0.00,,,0.44,Wunderground v.1.13,2013-04-12 15:36:00,
2013-04-12 11:38:00,55.4,48.7,29.94,WNW,293,2.0,8.0,78,0.00,,,0.44,Wunderground v.1.13,2013-04-12 15:38:00,
2013-04-12 11:40:00,55.4,48.7,29.94,WNW,293,2.0,8.0,78,0.00,,,0.44,Wunderground v.1.13,2013-04-12 15:40:00,
2013-04-12 11:42:00,55.4,48.7,29.94,WNW,293,2.0,8.0,78,0.00,,,0.44,Wunderground v.1.13,2013-04-12 15:42:00,
2013-04-12 11:44:00,55.4,48.7,29.94,WNW,293,2.0,8.0,78,0.00,,,0.44,Wunderground v.1.13,2013-04-12 15:44:00,
2013-04-12 11:46:00,56.4,48.6,29.94,NNW,338,2.0,10.0,75,0.00,,,0.44,Wunderground v.1.13,2013-04-12 15:46:00,
2013-04-12 11:48:00,56.4,48.6,29.94,NNW,338,2.0,10.0,75,0.00,,,0.44,Wunderground v.1.13,2013-04-12 15:48:00,
2013-04-12 11:50:00,56.4,48.6,29.94,NNW,338,2.0,10.0,75,0.00,,,0.44,Wunderground v.1.13,2013-04-12 15:50:00,
2013-04-12 11:52:00,56.4,48.6,29.94,NNW,338,2.0,10.0,75,0.00,,,0.44,Wunderground v.1.13,2013-04-12 15:52:00,
2013-04-12 11:54:00,56.4,48.6,29.94,NNW,338,2.0,10.0,75,0.00,,,0.44,Wunderground v.1.13,2013-04-12 15:54:00,
2013-04-12 11:56:00,56.4,48.6,29.94,NNW,338,2.0,10.0,75,0.00,,,0.44,Wunderground v.1.13,2013-04-12 15:56:00,
2013-04-12 11:58:00,56.4,48.6,29.94,NNW,338,2.0,10.0,75,0.00,,,0.44,Wunderground v.1.13,2013-04-12 15:58:00,
2013-04-12 12:00:00,56.4,48.6,29.94,NNW,338,2.0,10.0,75,0.00,,,0.44,Wunderground v.1.13,2013-04-12 16:00:00,
2013-04-12 12:02:00,56.4,48.6,29.94,NNW,338,2.0,10.0,75,0.00,,,0.44,Wunderground v.1.13,2013-04-12 16:02:00,
2013-04-12 12:04:00,56.4,48.6,29.94,NNW,338,2.0,10.0,75,0.00,,,0.44,Wunderground v.1.13,2013-04-12 16:04:00,
2013-04-12 12:06:00,56.4,48.6,29.94,NNW,338,2.0,10.0,75,0.00,,,0.44,Wunderground v.1.13,2013-04-12 16:06:00,
2013-04-12 12:08:00,56.4,48.6,29.94,NNW,338,2.0,10.0,75,0.00,,,0.44,Wunderground v.1.13,2013-04-12 16:08:00,
2013-04-12 12:10:00,56.4,48.6,29.94,NNW,338,2.0,10.0,75,0.00,,,0.44,Wunderground v.1.13,2013-04-12 16:10:00,
2013-04-12 12:12:00,56.4,48.6,29.94,NNW,338,2.0,10.0,75,0.00,,,0.44,Wunderground v.1.13,2013-04-12 16:12:00,
2013-04-12 12:14:00,56.4,48.6,29.94,NNW,338,2.0,10.0,75,0.00,,,0.44,Wunderground v.1.13,2013-04-12 16:14:00,
2013-04-12 12:16:00,56.2,48.0,29.94,WNW,293,2.0,9.0,74,0.00,,,0.44,Wunderground v.1.13,2013-04-12 16:16:00,
2013-04-12 12:18:00,56.2,48.0,29.94,WNW,293,2.0,9.0,74,0.00,,,0.44,Wunderground v.1.13,2013-04-12 16:18:00,
2013-04-12 12:20:00,56.2,48.0,29.94,WNW,293,2.0,9.0,74,0.00,,,0.44,Wunderground v.1.13,2013-04-12 16:20:00,
2013-04-12 12:22:00,56.2,48.0,29.94,WNW,293,2.0,9.0,74,0.00,,,0.44,Wunderground v.1.13,2013-04-12 16:22:00,
2013-04-12 12:24:00,56.2,48.0,29.94,WNW,293,2.0,9.0,74,0.00,,,0.44,Wunderground v.1.13,2013-04-12 16:24:00,
2013-04-12 12:26:00,56.2,48.0,29.94,WNW,293,2.0,9.0,74,0.00,,,0.44,Wunderground v.1.13,2013-04-12 16:26:00,
2013-04-12 12:28:00,56.2,48.0,29.94,WNW,293,2.0,9.0,74,0.00,,,0.44,Wunderground v.1.13,2013-04-12 16:28:00,
2013-04-12 12:30:00,56.2,48.0,29.94,WNW,293,2.0,9.0,74,0.00,,,0.44,Wunderground v.1.13,2013-04-12 16:30:00,
2013-04-12 12:32:00,56.2,48.0,29.94,WNW,293,2.0,9.0,74,0.00,,,0.44,Wunderground v.1.13,2013-04-12 16:32:00,
2013-04-12 12:34:00,56.2,48.0,29.94,WNW,293,2.0,9.0,74,0.00,,,0.44,Wunderground v.1.13,2013-04-12 16:34:00,
2013-04-12 12:36:00,56.2,48.0,29.94,WNW,293,2.0,9.0,74,0.00,,,0.44,Wunderground v.1.13,2013-04-12 16:36:00,
2013-04-12 12:38:00,56.2,48.0,29.94,WNW,293,2.0,9.0,74,0.00,,,0.44,Wunderground v.1.13,2013-04-12 16:38:00,
2013-04-12 12:40:00,56.2,48.0,29.94,WNW,293,2.0,9.0,74,0.00,,,0.44,Wunderground v.1.13,2013-04-12 16:40:00,
2013-04-12 12:42:00,56.2,48.0,29.94,WNW,293,2.0,9.0,74,0.00,,,0.44,Wunderground v.1.13,2013-04-12 16:42:00,
2013-04-12 12:44:00,56.2,48.0,29.94,WNW,293,2.0,9.0,74,0.00,,,0.44,Wunderground v.1.13,2013-04-12 16:44:00,
2013-04-12 12:46:00,57.2,46.3,29.94,North,0,3.0,9.0,67,0.00,,,0.44,Wunderground v.1.13,2013-04-12 16:46:00,
2013-04-12 12:48:00,57.2,46.3,29.94,North,0,3.0,9.0,67,0.00,,,0.44,Wunderground v.1.13,2013-04-12 16:48:00,
2013-04-12 12:50:00,57.2,46.3,29.94,North,0,3.0,9.0,67,0.00,,,0.44,Wunderground v.1.13,2013-04-12 16:50:00,
2013-04-12 12:52:00,57.2,46.3,29.94,North,0,3.0,9.0,67,0.00,,,0.44,Wunderground v.1.13,2013-04-12 16:52:00,
2013-04-12 12:54:00,57.2,46.3,29.94,North,0,3.0,9.0,67,0.00,,,0.44,Wunderground v.1.13,2013-04-12 16:54:00,
2013-04-12 12:56:00,57.2,46.3,29.94,North,0,3.0,9.0,67,0.00,,,0.44,Wunderground v.1.13,2013-04-12 16:56:00,
2013-04-12 12:58:00,57.2,46.3,29.94,North,0,3.0,9.0,67,0.00,,,0.44,Wunderground v.1.13,2013-04-12 16:58:00,
2013-04-12 13:00:00,57.2,46.3,29.94,North,0,3.0,9.0,67,0.00,,,0.44,Wunderground v.1.13,2013-04-12 17:00:00,
2013-04-12 13:02:00,57.2,46.3,29.94,North,0,3.0,9.0,67,0.00,,,0.44,Wunderground v.1.13,2013-04-12 17:02:00,
2013-04-12 13:04:00,57.2,46.3,29.94,North,0,3.0,9.0,67,0.00,,,0.44,Wunderground v.1.13,2013-04-12 17:04:00,
2013-04-12 13:06:00,57.2,46.3,29.94,North,0,3.0,9.0,67,0.00,,,0.44,Wunderground v.1.13,2013-04-12 17:06:00,
2013-04-12 13:08:00,57.2,46.3,29.94,North,0,3.0,9.0,67,0.00,,,0.44,Wunderground v.1.13,2013-04-12 17:08:00,
2013-04-12 13:10:00,57.2,46.3,29.94,North,0,3.0,9.0,67,0.00,,,0.44,Wunderground v.1.13,2013-04-12 17:10:00,
2013-04-12 13:12:00,57.2,46.3,29.94,North,0,3.0,9.0,67,0.00,,,0.44,Wunderground v.1.13,2013-04-12 17:12:00,
2013-04-12 13:14:00,57.2,46.3,29.94,North,0,3.0,9.0,67,0.00,,,0.44,Wunderground v.1.13,2013-04-12 17:14:00,
2013-04-12 13:16:00,57.3,45.6,29.95,North,0,3.0,14.0,65,0.00,,,0.44,Wunderground v.1.13,2013-04-12 17:16:00,
2013-04-12 13:18:00,57.3,45.6,29.95,North,0,3.0,14.0,65,0.00,,,0.44,Wunderground v.1.13,2013-04-12 17:18:00,
2013-04-12 13:20:00,57.3,45.6,29.95,North,0,3.0,14.0,65,0.00,,,0.44,Wunderground v.1.13,2013-04-12 17:20:00,
2013-04-12 13:22:00,57.3,45.6,29.95,North,0,3.0,14.0,65,0.00,,,0.44,Wunderground v.1.13,2013-04-12 17:22:00,
2013-04-12 13:24:00,57.3,45.6,29.95,North,0,3.0,14.0,65,0.00,,,0.44,Wunderground v.1.13,2013-04-12 17:24:00,
2013-04-12 13:26:00,57.3,45.6,29.95,North,0,3.0,14.0,65,0.00,,,0.44,Wunderground v.1.13,2013-04-12 17:26:00,
2013-04-12 13:28:00,57.3,45.6,29.95,North,0,3.0,14.0,65,0.00,,,0.44,Wunderground v.1.13,2013-04-12 17:28:00,
2013-04-12 13:30:00,57.3,45.6,29.95,North,0,3.0,14.0,65,0.00,,,0.44,Wunderground v.1.13,2013-04-12 17:30:00,
2013-04-12 13:32:00,57.3,45.6,29.95,North,0,3.0,14.0,65,0.00,,,0.44,Wunderground v.1.13,2013-04-12 17:32:00,
2013-04-12 13:34:00,57.3,45.6,29.95,North,0,3.0,14.0,65,0.00,,,0.44,Wunderground v.1.13,2013-04-12 17:34:00,
2013-04-12 13:36:00,57.3,45.6,29.95,North,0,3.0,14.0,65,0.00,,,0.44,Wunderground v.1.13,2013-04-12 17:36:00,
2013-04-12 13:38:00,57.3,45.6,29.95,North,0,3.0,14.0,65,0.00,,,0.44,Wunderground v.1.13,2013-04-12 17:38:00,
2013-04-12 13:40:00,57.3,45.6,29.95,North,0,3.0,14.0,65,0.00,,,0.44,Wunderground v.1.13,2013-04-12 17:40:00,
2013-04-12 13:42:00,57.3,45.6,29.95,North,0,3.0,14.0,65,0.00,,,0.44,Wunderground v.1.13,2013-04-12 17:42:00,
2013-04-12 13:44:00,57.3,45.6,29.95,North,0,3.0,14.0,65,0.00,,,0.44,Wunderground v.1.13,2013-04-12 17:44:00,
2013-04-12 13:46:00,58.9,45.0,29.95,North,0,3.0,9.0,60,0.00,,,0.44,Wunderground v.1.13,2013-04-12 17:46:00,
2013-04-12 13:48:00,58.9,45.0,29.95,North,0,3.0,9.0,60,0.00,,,0.44,Wunderground v.1.13,2013-04-12 17:48:00,
2013-04-12 13:50:00,58.9,45.0,29.95,North,0,3.0,9.0,60,0.00,,,0.44,Wunderground v.1.13,2013-04-12 17:50:00,
2013-04-12 13:52:00,58.9,45.0,29.95,North,0,3.0,9.0,60,0.00,,,0.44,Wunderground v.1.13,2013-04-12 17:52:00,
2013-04-12 13:54:00,58.9,45.0,29.95,North,0,3.0,9.0,60,0.00,,,0.44,Wunderground v.1.13,2013-04-12 17:54:00,
2013-04-12 13:56:00,58.9,45.0,29.95,North,0,3.0,9.0,60,0.00,,,0.44,Wunderground v.1.13,2013-04-12 17:56:00,
2013-04-12 13:58:00,58.9,45.0,29.95,North,0,3.0,9.0,60,0.00,,,0.44,Wunderground v.1.13,2013-04-12 17:58:00,
2013-04-12 14:00:00,58.9,45.0,29.95,North,0,3.0,9.0,60,0.00,,,0.44,Wunderground v.1.13,2013-04-12 18:00:00,
2013-04-12 14:02:00,58.9,45.0,29.95,North,0,3.0,9.0,60,0.00,,,0.44,Wunderground v.1.13,2013-04-12 18:02:00,
2013-04-12 14:04:00,58.9,45.0,29.95,North,0,3.0,9.0,60,0.00,,,0.44,Wunderground v.1.13,2013-04-12 18:04:00,
2013-04-12 14:06:00,58.9,45.0,29.95,North,0,3.0,9.0,60,0.00,,,0.44,Wunderground v.1.13,2013-04-12 18:06:00,
2013-04-12 14:08:00,58.9,45.0,29.95,North,0,3.0,9.0,60,0.00,,,0.44,Wunderground v.1.13,2013-04-12 18:08:00,
2013-04-12 14:10:00,58.9,45.0,29.95,North,0,3.0,9.0,60,0.00,,,0.44,Wunderground v.1.13,2013-04-12 18:10:00,
2013-04-12 14:12:00,58.9,45.0,29.95,North,0,3.0,9.0,60,0.00,,,0.44,Wunderground v.1.13,2013-04-12 18:12:00,
2013-04-12 14:14:00,58.9,45.0,29.95,North,0,3.0,9.0,60,0.00,,,0.44,Wunderground v.1.13,2013-04-12 18:14:00,
2013-04-12 14:16:00,59.4,45.1,29.95,North,0,3.0,8.0,59,0.00,,,0.44,Wunderground v.1.13,2013-04-12 18:16:00,
2013-04-12 14:18:00,59.4,45.1,29.95,North,0,3.0,8.0,59,0.00,,,0.44,Wunderground v.1.13,2013-04-12 18:18:00,
2013-04-12 14:20:00,59.4,45.1,29.95,North,0,3.0,8.0,59,0.00,,,0.44,Wunderground v.1.13,2013-04-12 18:20:00,
2013-04-12 14:22:00,59.4,45.1,29.95,North,0,3.0,8.0,59,0.00,,,0.44,Wunderground v.1.13,2013-04-12 18:22:00,
2013-04-12 14:24:00,59.4,45.1,29.95,North,0,3.0,8.0,59,0.00,,,0.44,Wunderground v.1.13,2013-04-12 18:24:00,
2013-04-12 14:26:00,59.4,45.1,29.95,North,0,3.0,8.0,59,0.00,,,0.44,Wunderground v.1.13,2013-04-12 18:26:00,
2013-04-12 14:28:00,59.4,45.1,29.95,North,0,3.0,8.0,59,0.00,,,0.44,Wunderground v.1.13,2013-04-12 18:28:00,
2013-04-12 14:30:00,59.4,45.1,29.95,North,0,3.0,8.0,59,0.00,,,0.44,Wunderground v.1.13,2013-04-12 18:30:00,
2013-04-12 14:32:00,59.4,45.1,29.95,North,0,3.0,8.0,59,0.00,,,0.44,Wunderground v.1.13,2013-04-12 18:32:00,
2013-04-12 14:34:00,59.4,45.1,29.95,North,0,3.0,8.0,59,0.00,,,0.44,Wunderground v.1.13,2013-04-12 18:34:00,
2013-04-12 14:36:00,59.4,45.1,29.95,North,0,3.0,8.0,59,0.00,,,0.44,Wunderground v.1.13,2013-04-12 18:36:00,
2013-04-12 14:38:00,59.4,45.1,29.95,North,0,3.0,8.0,59,0.00,,,0.44,Wunderground v.1.13,2013-04-12 18:38:00,
2013-04-12 14:40:00,59.4,45.1,29.95,North,0,3.0,8.0,59,0.00,,,0.44,Wunderground v.1.13,2013-04-12 18:40:00,
2013-04-12 14:42:00,59.4,45.1,29.95,North,0,3.0,8.0,59,0.00,,,0.44,Wunderground v.1.13,2013-04-12 18:42:00,
2013-04-12 14:44:00,59.4,45.1,29.95,North,0,3.0,8.0,59,0.00,,,0.44,Wunderground v.1.13,2013-04-12 18:44:00,
2013-04-12 14:46:00,60.3,38.9,29.96,NW,315,3.0,12.0,45,0.00,,,0.44,Wunderground v.1.13,2013-04-12 18:46:00,
2013-04-12 14:48:00,60.3,38.9,29.96,NW,315,3.0,12.0,45,0.00,,,0.44,Wunderground v.1.13,2013-04-12 18:48:00,
2013-04-12 14:50:00,60.3,38.9,29.96,NW,315,3.0,12.0,45,0.00,,,0.44,Wunderground v.1.13,2013-04-12 18:50:00,
2013-04-12 14:52:00,60.3,38.9,29.96,NW,315,3.0,12.0,45,0.00,,,0.44,Wunderground v.1.13,2013-04-12 18:52:00,
2013-04-12 14:54:00,60.3,38.9,29.96,NW,315,3.0,12.0,45,0.00,,,0.44,Wunderground v.1.13,2013-04-12 18:54:00,
2013-04-12 14:56:00,60.3,38.9,29.96,NW,315,3.0,12.0,45,0.00,,,0.44,Wunderground v.1.13,2013-04-12 18:56:00,
2013-04-12 14:58:00,60.3,38.9,29.96,NW,315,3.0,12.0,45,0.00,,,0.44,Wunderground v.1.13,2013-04-12 18:58:00,
2013-04-12 15:00:00,60.3,38.9,29.96,NW,315,3.0,12.0,45,0.00,,,0.44,Wunderground v.1.13,2013-04-12 19:00:00,
2013-04-12 15:26:00,61.0,38.3,29.96,WNW,303,3.0,6.0,43,0.00,,,0.44,Wunderground v.1.13,2013-04-12 19:26:00,
2013-04-12 15:32:00,61.2,39.1,29.96,WNW,302,3.0,7.0,44,0.00,,,0.44,Wunderground v.1.13,2013-04-12 19:32:00,
2013-04-12 15:37:00,61.4,38.7,29.96,NW,306,4.0,4.0,43,0.00,,,0.44,Wunderground v.1.13,2013-04-12 19:37:00,
2013-04-12 15:42:00,61.2,39.1,29.96,NW,309,4.0,4.0,44,0.00,,,0.44,Wunderground v.1.13,2013-04-12 19:42:00,
2013-04-12 15:47:00,61.3,39.2,29.96,North,360,9.0,9.0,44,0.00,,,0.44,Wunderground v.1.13,2013-04-12 19:47:00,
2013-04-12 15:52:00,61.5,38.2,29.96,North,355,0.0,4.0,42,0.00,,,0.44,Wunderground v.1.13,2013-04-12 19:52:00,
2013-04-12 15:57:00,61.7,38.4,29.96,WNW,293,3.0,3.0,42,0.00,,,0.44,Wunderground v.1.13,2013-04-12 19:57:00,
2013-04-12 16:02:00,61.8,39.6,29.95,WNW,288,5.0,9.0,44,0.00,,,0.44,Wunderground v.1.13,2013-04-12 20:02:00,
2013-04-12 16:07:00,61.5,37.6,29.96,North,11,6.0,9.0,41,0.00,,,0.44,Wunderground v.1.13,2013-04-12 20:07:00,
2013-04-12 16:12:00,61.5,38.2,29.95,WNW,300,4.0,6.0,42,0.00,,,0.44,Wunderground v.1.13,2013-04-12 20:12:00,
2013-04-12 16:17:00,61.5,38.8,29.95,West,271,2.0,5.0,43,0.00,,,0.44,Wunderground v.1.13,2013-04-12 20:17:00,
2013-04-12 16:22:00,62.1,41.1,29.95,NNW,327,5.0,6.0,46,0.00,,,0.44,Wunderground v.1.13,2013-04-12 20:22:00,
2013-04-12 16:28:00,62.3,41.2,29.95,WSW,248,4.0,4.0,46,0.00,,,0.44,Wunderground v.1.13,2013-04-12 20:28:00,
2013-04-12 16:32:00,62.4,40.8,29.95,NW,315,4.0,6.0,45,0.00,,,0.44,Wunderground v.1.13,2013-04-12 20:32:00,
2013-04-12 16:37:00,62.3,38.9,29.95,SW,225,3.0,7.0,42,0.00,,,0.44,Wunderground v.1.13,2013-04-12 20:37:00,
2013-04-12 16:42:00,62.1,40.5,29.95,North,9,2.0,5.0,45,0.00,,,0.44,Wunderground v.1.13,2013-04-12 20:42:00,
2013-04-12 16:48:00,62.5,38.5,29.96,WNW,288,0.0,6.0,41,0.00,,,0.44,Wunderground v.1.13,2013-04-12 20:48:00,
2013-04-12 16:53:00,62.6,38.6,29.95,North,360,3.0,10.0,41,0.00,,,0.44,Wunderground v.1.13,2013-04-12 20:53:00,
2013-04-12 16:58:00,62.5,39.7,29.96,WNW,287,1.0,6.0,43,0.00,,,0.44,Wunderground v.1.13,2013-04-12 20:58:00,
2013-04-12 17:03:00,63.0,39.5,29.95,NNW,340,2.0,5.0,42,0.00,,,0.44,Wunderground v.1.13,2013-04-12 21:03:00,
2013-04-12 17:08:00,62.9,39.4,29.95,NNW,340,0.0,4.0,42,0.00,,,0.44,Wunderground v.1.13,2013-04-12 21:08:00,
2013-04-12 17:13:00,62.9,38.8,29.96,NNE,20,6.0,9.0,41,0.00,,,0.44,Wunderground v.1.13,2013-04-12 21:13:00,
2013-04-12 17:18:00,62.7,39.9,29.96,WNW,300,2.0,6.0,43,0.00,,,0.44,Wunderground v.1.13,2013-04-12 21:18:00,
2013-04-12 17:23:00,62.6,39.8,29.96,North,355,4.0,10.0,43,0.00,,,0.44,Wunderground v.1.13,2013-04-12 21:23:00,
2013-04-12 17:28:00,62.7,39.9,29.95,NNW,342,2.0,5.0,43,0.00,,,0.44,Wunderground v.1.13,2013-04-12 21:28:00,
2013-04-12 17:33:00,62.8,39.4,29.96,WNW,287,3.0,9.0,42,0.00,,,0.44,Wunderground v.1.13,2013-04-12 21:33:00,
2013-04-12 17:38:00,62.7,39.3,29.95,WNW,299,3.0,7.0,42,0.00,,,0.44,Wunderground v.1.13,2013-04-12 21:38:00,
2013-04-12 17:43:00,62.7,39.3,29.95,North,360,3.0,7.0,42,0.00,,,0.44,Wunderground v.1.13,2013-04-12 21:43:00,
2013-04-12 17:48:00,62.7,38.6,29.95,North,360,3.0,8.0,41,0.00,,,0.44,Wunderground v.1.13,2013-04-12 21:48:00,
2013-04-12 17:53:00,62.9,40.0,29.95,North,360,4.0,6.0,43,0.00,,,0.44,Wunderground v.1.13,2013-04-12 21:53:00,
2013-04-12 17:58:00,63.2,39.1,29.96,WNW,297,4.0,5.0,41,0.00,,,0.44,Wunderground v.1.13,2013-04-12 21:58:00,
2013-04-12 18:03:00,63.1,40.2,29.95,North,355,4.0,7.0,43,0.00,,,0.44,Wunderground v.1.13,2013-04-12 22:03:00,
2013-04-12 18:08:00,63.0,39.5,29.96,North,360,4.0,8.0,42,0.00,,,0.44,Wunderground v.1.13,2013-04-12 22:08:00,
2013-04-12 18:13:00,62.5,39.1,29.96,North,355,6.0,9.0,42,0.00,,,0.44,Wunderground v.1.13,2013-04-12 22:13:00,
2013-04-12 18:18:00,62.2,38.8,29.96,North,355,5.0,8.0,42,0.00,,,0.44,Wunderground v.1.13,2013-04-12 22:18:00,
2013-04-12 18:24:00,62.1,38.7,29.96,NNW,348,5.0,10.0,42,0.00,,,0.44,Wunderground v.1.13,2013-04-12 22:24:00,
2013-04-12 18:29:00,61.7,39.6,29.96,NNW,346,2.0,8.0,44,0.00,,,0.44,Wunderground v.1.13,2013-04-12 22:29:00,
2013-04-12 18:34:00,61.6,39.5,29.96,NNW,329,2.0,7.0,44,0.00,,,0.44,Wunderground v.1.13,2013-04-12 22:34:00,
2013-04-12 18:39:00,61.4,38.7,29.96,North,350,3.0,10.0,43,0.00,,,0.44,Wunderground v.1.13,2013-04-12 22:39:00,
2013-04-12 18:44:00,61.2,38.5,29.96,North,350,3.0,9.0,43,0.00,,,0.44,Wunderground v.1.13,2013-04-12 22:44:00,
2013-04-12 18:49:00,61.1,38.4,29.97,WNW,296,1.0,8.0,43,0.00,,,0.44,Wunderground v.1.13,2013-04-12 22:49:00,
2013-04-12 18:54:00,60.9,38.8,29.97,North,360,2.0,6.0,44,0.00,,,0.44,Wunderground v.1.13,2013-04-12 22:54:00,
2013-04-12 18:59:00,60.7,38.6,29.97,NNW,346,3.0,6.0,44,0.00,,,0.44,Wunderground v.1.13,2013-04-12 22:59:00,
2013-04-12 19:04:00,60.5,38.5,29.97,North,360,2.0,6.0,44,0.00,,,0.44,Wunderground v.1.13,2013-04-12 23:04:00,
2013-04-12 19:09:00,60.4,37.8,29.97,NW,325,6.0,6.0,43,0.00,,,0.44,Wunderground v.1.13,2013-04-12 23:09:00,
2013-04-12 19:14:00,60.2,38.8,29.97,WNW,300,2.0,7.0,45,0.00,,,0.44,Wunderground v.1.13,2013-04-12 23:14:00,
2013-04-12 19:19:00,59.9,37.9,29.98,North,349,4.0,9.0,44,0.00,,,0.44,Wunderground v.1.13,2013-04-12 23:19:00,
2013-04-12 19:24:00,59.7,38.3,29.98,North,355,2.0,6.0,45,0.00,,,0.44,Wunderground v.1.13,2013-04-12 23:24:00,
2013-04-12 19:29:00,59.3,37.9,29.98,NNW,348,4.0,9.0,45,0.00,,,0.44,Wunderground v.1.13,2013-04-12 23:29:00,
2013-04-12 19:34:00,59.0,38.2,29.98,WNW,286,3.0,6.0,46,0.00,,,0.44,Wunderground v.1.13,2013-04-12 23:34:00,
2013-04-12 19:39:00,58.8,38.6,29.98,NNW,342,1.0,5.0,47,0.00,,,0.44,Wunderground v.1.13,2013-04-12 23:39:00,
2013-04-12 19:44:00,58.6,38.4,29.98,NNW,345,2.0,6.0,47,0.00,,,0.44,Wunderground v.1.13,2013-04-12 23:44:00,
2013-04-12 19:49:00,58.4,38.2,29.99,North,5,3.0,7.0,47,0.00,,,0.44,Wunderground v.1.13,2013-04-12 23:49:00,
2013-04-12 19:54:00,58.1,38.0,29.99,NNW,328,1.0,5.0,47,0.00,,,0.44,Wunderground v.1.13,2013-04-12 23:54:00,
2013-04-12 19:59:00,57.8,38.8,29.99,NNW,346,2.0,5.0,49,0.00,,,0.44,Wunderground v.1.13,2013-04-12 23:59:00,
2013-04-12 20:04:00,57.5,39.0,29.99,NNW,344,1.0,5.0,50,0.00,,,0.44,Wunderground v.1.13,2013-04-13 00:04:00,
2013-04-12 20:09:00,57.2,39.2,29.99,NNW,330,2.0,8.0,51,0.00,,,0.44,Wunderground v.1.13,2013-04-13 00:09:00,
2013-04-12 20:14:00,56.9,38.9,29.99,North,5,6.0,8.0,51,0.00,,,0.44,Wunderground v.1.13,2013-04-13 00:14:00,
2013-04-12 20:19:00,56.7,38.8,30.00,North,355,4.0,4.0,51,0.00,,,0.44,Wunderground v.1.13,2013-04-13 00:19:00,
2013-04-12 20:24:00,56.5,39.1,30.00,NNE,15,4.0,5.0,52,0.00,,,0.44,Wunderground v.1.13,2013-04-13 00:24:00,
2013-04-12 20:29:00,56.3,39.4,30.00,North,355,2.0,5.0,53,0.00,,,0.44,Wunderground v.1.13,2013-04-13 00:29:00,
2013-04-12 20:34:00,56.1,39.2,30.00,NNW,344,1.0,5.0,53,0.00,,,0.44,Wunderground v.1.13,2013-04-13 00:34:00,
2013-04-12 20:39:00,55.9,39.5,30.01,NNW,344,0.0,2.0,54,0.00,,,0.44,Wunderground v.1.13,2013-04-13 00:39:00,
2013-04-12 20:44:00,55.7,39.3,30.01,NNW,344,0.0,2.0,54,0.00,,,0.44,Wunderground v.1.13,2013-04-13 00:44:00,
2013-04-12 20:49:00,55.5,39.1,30.01,NNW,344,2.0,3.0,54,0.00,,,0.44,Wunderground v.1.13,2013-04-13 00:49:00,
2013-04-12 20:54:00,55.4,39.5,30.01,WNW,292,1.0,2.0,55,0.00,,,0.44,Wunderground v.1.13,2013-04-13 00:54:00,
2013-04-12 20:59:00,55.2,39.3,30.02,NW,323,0.0,2.0,55,0.00,,,0.44,Wunderground v.1.13,2013-04-13 00:59:00,
2013-04-12 21:04:00,55.0,39.6,30.02,NW,323,0.0,1.0,56,0.00,,,0.44,Wunderground v.1.13,2013-04-13 01:04:00,
2013-04-12 21:05:00,54.7,39.8,30.02,NNW,338,0.0,4.0,57,0.00,,,0.44,Wunderground v.1.13,2013-04-13 01:05:00,
2013-04-12 21:07:00,54.7,39.8,30.02,NNW,338,0.0,4.0,57,0.00,,,0.44,Wunderground v.1.13,2013-04-13 01:07:00,
2013-04-12 21:09:00,54.7,39.8,30.02,NNW,338,0.0,4.0,57,0.00,,,0.44,Wunderground v.1.13,2013-04-13 01:09:00,
2013-04-12 21:11:00,54.7,39.8,30.02,NNW,338,0.0,4.0,57,0.00,,,0.44,Wunderground v.1.13,2013-04-13 01:11:00,
2013-04-12 21:13:00,54.7,39.8,30.02,NNW,338,0.0,4.0,57,0.00,,,0.44,Wunderground v.1.13,2013-04-13 01:13:00,
2013-04-12 21:15:00,53.2,38.8,30.04,NW,315,0.0,2.0,58,0.00,,,0.44,Wunderground v.1.13,2013-04-13 01:15:00,
2013-04-12 21:17:00,53.2,38.8,30.04,NW,315,0.0,2.0,58,0.00,,,0.44,Wunderground v.1.13,2013-04-13 01:17:00,
2013-04-12 21:19:00,53.2,38.8,30.04,NW,315,0.0,2.0,58,0.00,,,0.44,Wunderground v.1.13,2013-04-13 01:19:00,
2013-04-12 21:21:00,53.2,38.8,30.04,NW,315,0.0,2.0,58,0.00,,,0.44,Wunderground v.1.13,2013-04-13 01:21:00,
2013-04-12 21:23:00,53.2,38.8,30.04,NW,315,0.0,2.0,58,0.00,,,0.44,Wunderground v.1.13,2013-04-13 01:23:00,
2013-04-12 21:25:00,53.2,38.8,30.04,NW,315,0.0,2.0,58,0.00,,,0.44,Wunderground v.1.13,2013-04-13 01:25:00,
2013-04-12 21:27:00,53.2,38.8,30.04,NW,315,0.0,2.0,58,0.00,,,0.44,Wunderground v.1.13,2013-04-13 01:27:00,
2013-04-12 21:29:00,53.2,38.8,30.04,NW,315,0.0,2.0,58,0.00,,,0.44,Wunderground v.1.13,2013-04-13 01:29:00,
2013-04-12 21:31:00,53.2,38.8,30.04,NW,315,0.0,2.0,58,0.00,,,0.44,Wunderground v.1.13,2013-04-13 01:31:00,
2013-04-12 21:33:00,53.2,38.8,30.04,NW,315,0.0,2.0,58,0.00,,,0.44,Wunderground v.1.13,2013-04-13 01:33:00,
2013-04-12 21:35:00,53.2,38.8,30.04,NW,315,0.0,2.0,58,0.00,,,0.44,Wunderground v.1.13,2013-04-13 01:35:00,
2013-04-12 21:37:00,53.2,38.8,30.04,NW,315,0.0,2.0,58,0.00,,,0.44,Wunderground v.1.13,2013-04-13 01:37:00,
2013-04-12 21:39:00,53.2,38.8,30.04,NW,315,0.0,2.0,58,0.00,,,0.44,Wunderground v.1.13,2013-04-13 01:39:00,
2013-04-12 21:41:00,53.2,38.8,30.04,NW,315,0.0,2.0,58,0.00,,,0.44,Wunderground v.1.13,2013-04-13 01:41:00,
2013-04-12 21:43:00,53.2,38.8,30.04,NW,315,0.0,2.0,58,0.00,,,0.44,Wunderground v.1.13,2013-04-13 01:43:00,
2013-04-12 21:45:00,53.3,38.0,30.05,NNW,338,0.0,2.0,56,0.00,,,0.44,Wunderground v.1.13,2013-04-13 01:45:00,
2013-04-12 21:47:00,53.3,38.0,30.05,NNW,338,0.0,2.0,56,0.00,,,0.44,Wunderground v.1.13,2013-04-13 01:47:00,
2013-04-12 21:49:00,53.3,38.0,30.05,NNW,338,0.0,2.0,56,0.00,,,0.44,Wunderground v.1.13,2013-04-13 01:49:00,
2013-04-12 21:51:00,53.3,38.0,30.05,NNW,338,0.0,2.0,56,0.00,,,0.44,Wunderground v.1.13,2013-04-13 01:51:00,
2013-04-12 21:53:00,53.3,38.0,30.05,NNW,338,0.0,2.0,56,0.00,,,0.44,Wunderground v.1.13,2013-04-13 01:53:00,
2013-04-12 21:55:00,53.3,38.0,30.05,NNW,338,0.0,2.0,56,0.00,,,0.44,Wunderground v.1.13,2013-04-13 01:55:00,
2013-04-12 21:57:00,53.3,38.0,30.05,NNW,338,0.0,2.0,56,0.00,,,0.44,Wunderground v.1.13,2013-04-13 01:57:00,
2013-04-12 21:59:00,53.3,38.0,30.05,NNW,338,0.0,2.0,56,0.00,,,0.44,Wunderground v.1.13,2013-04-13 01:59:00,
2013-04-12 22:01:00,53.3,38.0,30.05,NNW,338,0.0,2.0,56,0.00,,,0.44,Wunderground v.1.13,2013-04-13 02:01:00,
2013-04-12 22:03:00,53.3,38.0,30.05,NNW,338,0.0,2.0,56,0.00,,,0.44,Wunderground v.1.13,2013-04-13 02:03:00,
2013-04-12 22:05:00,53.3,38.0,30.05,NNW,338,0.0,2.0,56,0.00,,,0.44,Wunderground v.1.13,2013-04-13 02:05:00,
2013-04-12 22:07:00,53.3,38.0,30.05,NNW,338,0.0,2.0,56,0.00,,,0.44,Wunderground v.1.13,2013-04-13 02:07:00,
2013-04-12 22:09:00,53.3,38.0,30.05,NNW,338,0.0,2.0,56,0.00,,,0.44,Wunderground v.1.13,2013-04-13 02:09:00,
2013-04-12 22:11:00,53.3,38.0,30.05,NNW,338,0.0,2.0,56,0.00,,,0.44,Wunderground v.1.13,2013-04-13 02:11:00,
2013-04-12 22:13:00,53.3,38.0,30.05,NNW,338,0.0,2.0,56,0.00,,,0.44,Wunderground v.1.13,2013-04-13 02:13:00,
2013-04-12 22:15:00,52.6,38.7,30.07,NNW,338,0.0,2.0,59,0.00,,,0.44,Wunderground v.1.13,2013-04-13 02:15:00,
2013-04-12 22:17:00,52.6,38.7,30.07,NNW,338,0.0,2.0,59,0.00,,,0.44,Wunderground v.1.13,2013-04-13 02:17:00,
2013-04-12 22:19:00,52.6,38.7,30.07,NNW,338,0.0,2.0,59,0.00,,,0.44,Wunderground v.1.13,2013-04-13 02:19:00,
2013-04-12 22:21:00,52.6,38.7,30.07,NNW,338,0.0,2.0,59,0.00,,,0.44,Wunderground v.1.13,2013-04-13 02:21:00,
2013-04-12 22:23:00,52.6,38.7,30.07,NNW,338,0.0,2.0,59,0.00,,,0.44,Wunderground v.1.13,2013-04-13 02:23:00,
2013-04-12 22:25:00,52.6,38.7,30.07,NNW,338,0.0,2.0,59,0.00,,,0.44,Wunderground v.1.13,2013-04-13 02:25:00,
2013-04-12 22:27:00,52.6,38.7,30.07,NNW,338,0.0,2.0,59,0.00,,,0.44,Wunderground v.1.13,2013-04-13 02:27:00,
2013-04-12 22:29:00,52.6,38.7,30.07,NNW,338,0.0,2.0,59,0.00,,,0.44,Wunderground v.1.13,2013-04-13 02:29:00,
2013-04-12 22:59:00,51.7,38.7,30.07,North,355,4.0,4.0,61,0.00,,,0.44,Wunderground v.1.13,2013-04-13 02:59:00,
2013-04-12 23:04:00,51.5,38.5,30.07,North,355,1.0,4.0,61,0.00,,,0.44,Wunderground v.1.13,2013-04-13 03:04:00,
2013-04-12 23:09:00,51.3,38.7,30.07,North,355,0.0,2.0,62,0.00,,,0.44,Wunderground v.1.13,2013-04-13 03:09:00,
2013-04-12 23:14:00,51.2,38.6,30.07,North,355,0.0,1.0,62,0.00,,,0.44,Wunderground v.1.13,2013-04-13 03:14:00,
2013-04-12 23:19:00,51.1,38.5,30.07,North,355,0.0,2.0,62,0.00,,,0.44,Wunderground v.1.13,2013-04-13 03:19:00,
2013-04-12 23:24:00,51.1,38.5,30.07,North,355,0.0,2.0,62,0.00,,,0.44,Wunderground v.1.13,2013-04-13 03:24:00,
2013-04-12 23:29:00,51.1,38.1,30.07,North,355,0.0,2.0,61,0.00,,,0.44,Wunderground v.1.13,2013-04-13 03:29:00,
2013-04-12 23:34:00,50.9,38.3,30.07,North,355,0.0,1.0,62,0.00,,,0.44,Wunderground v.1.13,2013-04-13 03:34:00,
2013-04-12 23:40:00,50.7,38.1,30.07,North,355,0.0,0.0,62,0.00,,,0.44,Wunderground v.1.13,2013-04-13 03:40:00,
2013-04-12 23:45:00,50.6,38.1,30.07,North,355,0.0,0.0,62,0.00,,,0.44,Wunderground v.1.13,2013-04-13 03:45:00,
2013-04-12 23:50:00,50.6,38.5,30.07,North,355,0.0,0.0,63,0.00,,,0.44,Wunderground v.1.13,2013-04-13 03:50:00,
2013-04-12 23:55:00,50.5,38.4,30.07,North,355,0.0,0.0,63,0.00,,,0.44,Wunderground v.1.13,2013-04-13 03:55:00,